User: anonymous   Login
Location: Wildcat Hills Observatory
(41.6350°N, 103.6812°W)
Time: 12:57:59
(UTC-06:00)
Language:

Cosmos 1634 Rocket - Orbit

View from above orbital plane
View from above orbital plane
View from above satellite
View from above satellite

Ground track
Ground track

The orbit data is extracted from the following two-line orbital elements,

1 15598U 85022B   15244.92900707 -.00000032 +00000-0 -48205-4 0  9995
2 15598 082.9348 233.3856 0023179 136.3521 283.7489 13.76527034530217
Epoch (UTC): 01 September 2015 22:17:46
Eccentricity: 0.0023179
inclination: 82.9348°
perigee height: 959 km
apogee height: 993 km
right ascension of ascending node: 233.3856°
argument of perigee: 136.3521°
revolutions per day: 13.76527034
mean anomaly at epoch: 283.7489°
orbit number at epoch: 53021

The dashed part of the orbit path shows where the satellite is in the earth's shadow,  

DLR